GALAXY 37 (G-37)

Last updated on Tue Sep 22 2026 00:03:16 GMT+0000 (Coordinated Universal Time)

1 57493U 23112A 26264.13452704 .00000044 00000+0 00000+0 0 9999 2 57493 0.0149 113.7098 0002061 68.1672 99.5816 1.00272404 11507
UTC large
Height (km)
Speed (km/s)
/
Latitude / Longitude
Inclination (degrees)
Orbital Period (minutes)
Azimuth
Elevation
Range (km)
Doppler Factor

Next 0 passes for location: London (51.5072 / 0.1276)

No passes found over London.
GALAXY 37 (G-37)